(43197) = 1998 RO51 = 2000 AU44

Discovered at Kitt Peak on 2000-01-05 by Spacewatch.

Orbit

Orbit type: Main Belt

Note: WebGL enabled browser required.

epoch2023-09-13.0
epoch JD2460200.5
perihelion date2020-07-11.93186
perihelion JD2459042.43186
argument of perihelion (°)244.59464
ascending node (°)67.35112
inclination (°)2.20508
eccentricity0.1893932
perihelion distance (AU)1.9337930
Tisserand w.r.t. Jupiter3.5
ΔV w.r.t. Earth (km/sec)8.7
semimajor axis (AU)2.3856117
mean anomaly (°)309.76925
mean daily motion (°/day)0.26748790
aphelion distance (AU)2.837
period (years)3.68
P-vector [x]0.66780939
P-vector [y]-0.66834175
P-vector [z]-0.32764299
Q-vector [x]0.74348485
Q-vector [y]0.61994788
Q-vector [z]0.25078855
absolute magnitude16.09
phase slope0.15
uncertainty0
referenceMPEC 2023-P01
observations used985
oppositions20
arc length (days)11566
first opposition used1991
last opposition used2023
residual rms (arc-secs)0.72
perturbers coarse indicatorM-v
perturbers precise indicator003Ek
first observation date used1991-11-08.0
last observation date used2023-07-09.0
computer nameMPCLINUX
JD of orbit computation2456700.360810
perihelion JD uncertainty (days)5.2586E-05
argument of perihelion uncertainty (°)1.1804E-04
ascending node uncertainty (°)1.1730E-04
inclination uncertainty (°)4.2874E-06
eccentricity uncertainty 3.8362E-08
perihelion distance uncertainty (AU)9.2065E-08
Minimum Orbit Intersection Distances (in AU)
for orbit epoch: 2460200.5, reference: E2023-P01
Mercury1.50148
Venus1.20569
Earth0.92023
Mars0.5352
Jupiter2.42259
Saturn6.28769
Uranus15.6641
Neptune27.361

Observations

1023 total observations over interval: 1991 11 08.48342 – 2023 07 09.168636
These data are available for download (format description).

Date (UT) J2000 RA J2000 Dec Magn Location Ref
1991 11 08.48342 03 32 46.87 +18 03 04.2   691 – Steward Observatory, Kitt Peak-Spacewatch MPS 33201
1991 11 08.50112 03 32 45.69 +18 03 00.6 19.8 V 691 – Steward Observatory, Kitt Peak-Spacewatch MPS 33201
1991 11 08.51836 03 32 44.53 +18 02 58.7   691 – Steward Observatory, Kitt Peak-Spacewatch MPS 33201
1998 08 23.40736 23 52 22.25 -05 29 12.7 18.6   704 – Lincoln Laboratory ETS, New Mexico MPS 10127
1998 08 23.41986 23 52 21.93 -05 29 17.0 18.6   704 – Lincoln Laboratory ETS, New Mexico MPS 10127
1998 08 23.43289 23 52 21.32 -05 29 19.2 18.8   704 – Lincoln Laboratory ETS, New Mexico MPS 10127
1998 08 23.44592 23 52 20.89 -05 29 22.9 18.8   704 – Lincoln Laboratory ETS, New Mexico MPS 10127
1998 08 23.45790 23 52 20.07 -05 29 29.0 18.9   704 – Lincoln Laboratory ETS, New Mexico MPS 10127
1998 09 14.27693 23 35 29.10 -07 20 38.4 18.9   704 – Lincoln Laboratory ETS, New Mexico MPS 2331
1998 09 14.29898 23 35 27.93 -07 20 43.6 19.3   704 – Lincoln Laboratory ETS, New Mexico MPS 2331
1998 09 14.32099 23 35 26.83 -07 20 52.4 19.3   704 – Lincoln Laboratory ETS, New Mexico MPS 2331
1998 09 18.31307 23 31 55.89 -07 40 00.3 18.1   704 – Lincoln Laboratory ETS, New Mexico MPS 2331
1998 09 18.32593 23 31 55.08 -07 40 01.5 17.9   704 – Lincoln Laboratory ETS, New Mexico MPS 2331
1998 09 18.33898 23 31 54.42 -07 40 04.8 17.9   704 – Lincoln Laboratory ETS, New Mexico MPS 2331
1998 09 18.35223 23 31 53.68 -07 40 09.0 18.3   704 – Lincoln Laboratory ETS, New Mexico MPS 2331
1998 09 18.36535 23 31 53.01 -07 40 13.8 18.3   704 – Lincoln Laboratory ETS, New Mexico MPS 2331
1998 10 10.24514 23 16 47.65 -08 40 51.4 18.0 R 699 – Lowell Observatory-LONEOS MPS 54449
1998 10 10.26499 23 16 47.09 -08 40 51.8   699 – Lowell Observatory-LONEOS MPS 54449
1998 10 10.28415 23 16 46.55 -08 40 52.4   699 – Lowell Observatory-LONEOS MPS 54449
1998 10 12.20481 23 16 00.85 -08 41 42.2 18.4 R 699 – Lowell Observatory-LONEOS MPS 57013
1998 10 12.22963 23 16 00.24 -08 41 42.9   699 – Lowell Observatory-LONEOS MPS 57013
1998 10 12.25444 23 15 59.59 -08 41 44.2   699 – Lowell Observatory-LONEOS MPS 57013
2000 01 05.37149 08 08 51.39 +22 38 32.4 19.5 V 691 – Steward Observatory, Kitt Peak-Spacewatch MPS 9264
2000 01 05.39446 08 08 49.96 +22 38 37.3 19.2 V 691 – Steward Observatory, Kitt Peak-Spacewatch MPS 9264
2000 01 05.41755 08 08 48.54 +22 38 42.7 19.4 V 691 – Steward Observatory, Kitt Peak-Spacewatch MPS 9264
2000 01 06.34852 08 07 52.35 +22 42 12.5 20.0 V 691 – Steward Observatory, Kitt Peak-Spacewatch MPS 9264
2000 01 06.36081 08 07 51.57 +22 42 15.0 19.9 V 691 – Steward Observatory, Kitt Peak-Spacewatch MPS 9264
2000 01 06.37288 08 07 50.85 +22 42 17.7 20.0 V 691 – Steward Observatory, Kitt Peak-Spacewatch MPS 9264
2000 01 08.44819 08 05 42.76 +22 50 03.2 19.5 V 691 – Steward Observatory, Kitt Peak-Spacewatch MPS 9264
2000 01 08.47059 08 05 41.31 +22 50 08.3 19.4 V 691 – Steward Observatory, Kitt Peak-Spacewatch MPS 9264
2000 01 08.49638 08 05 39.69 +22 50 13.5 19.6 V 691 – Steward Observatory, Kitt Peak-Spacewatch MPS 9264
2000 01 12.32527 08 01 36.51 +23 04 20.3 19.5 V 691 – Steward Observatory, Kitt Peak-Spacewatch MPS 9264
2000 01 12.33159 08 01 36.07 +23 04 21.7 19.5 V 691 – Steward Observatory, Kitt Peak-Spacewatch MPS 9264
2000 01 12.33755 08 01 35.69 +23 04 23.0 19.5 V 691 – Steward Observatory, Kitt Peak-Spacewatch MPS 9264
2000 01 13.32735 08 00 31.65 +23 07 57.3 19.2 V 691 – Steward Observatory, Kitt Peak-Spacewatch MPS 9264
2000 01 13.33346 08 00 31.22 +23 07 58.8 19.1 V 691 – Steward Observatory, Kitt Peak-Spacewatch MPS 9264
2000 01 13.33997 08 00 30.78 +23 08 00.2 19.1 V 691 – Steward Observatory, Kitt Peak-Spacewatch MPS 9264
2000 01 13.42608 08 00 25.10 +23 08 18.0 19.8 V 691 – Steward Observatory, Kitt Peak-Spacewatch MPS 9264
2000 01 13.43205 08 00 24.65 +23 08 19.3 19.9 V 691 – Steward Observatory, Kitt Peak-Spacewatch MPS 9264
2000 01 13.43800 08 00 24.27 +23 08 20.8 19.3 V 691 – Steward Observatory, Kitt Peak-Spacewatch MPS 9264
2000 01 14.26410 07 59 30.89 +23 11 17.8 20.1 V 691 – Steward Observatory, Kitt Peak-Spacewatch MPS 9264
2000 01 14.27235 07 59 30.28 +23 11 19.7 20.3 V 691 – Steward Observatory, Kitt Peak-Spacewatch MPS 9264
2000 01 14.28006 07 59 29.80 +23 11 20.9 20.7 V 691 – Steward Observatory, Kitt Peak-Spacewatch MPS 9264
2000 01 15.21969 07 58 28.59 +23 14 39.7 19.2 V 691 – Steward Observatory, Kitt Peak-Spacewatch MPS 9264
2000 01 15.22575 07 58 28.17 +23 14 41.2 19.2 V 691 – Steward Observatory, Kitt Peak-Spacewatch MPS 9264
2000 01 15.23187 07 58 27.75 +23 14 42.4 19.1 V 691 – Steward Observatory, Kitt Peak-Spacewatch MPS 9264
2000 01 15.24645 07 58 26.73 +23 14 45.9 19.6 V 691 – Steward Observatory, Kitt Peak-Spacewatch MPS 9264
2000 01 15.25294 07 58 26.36 +23 14 46.4 19.1 V 691 – Steward Observatory, Kitt Peak-Spacewatch MPS 9264
2000 01 15.25891 07 58 25.89 +23 14 48.8 18.8 V 691 – Steward Observatory, Kitt Peak-Spacewatch MPS 9264
2001 03 24.34508 14 21 19.00 -11 31 27.8 19.1 R 699 – Lowell Observatory-LONEOS MPS 27789
2001 03 24.38733 14 21 17.58 -11 31 21.2   699 – Lowell Observatory-LONEOS MPS 27789
2001 03 24.40851 14 21 16.93 -11 31 18.1   699 – Lowell Observatory-LONEOS MPS 27789
2001 03 24.43222 14 21 16.21 -11 31 14.6   699 – Lowell Observatory-LONEOS MPS 27789
2001 04 16.29295 14 03 52.86 -10 06 06.5 18.8 R 699 – Lowell Observatory-LONEOS MPS 29506
2001 04 16.33098 14 03 50.62 -10 05 56.3   699 – Lowell Observatory-LONEOS MPS 29506
2001 04 16.36914 14 03 48.32 -10 05 45.9   699 – Lowell Observatory-LONEOS MPS 29506
2001 04 16.40754 14 03 46.08 -10 05 35.4   699 – Lowell Observatory-LONEOS MPS 29506
2001 04 18.49603 14 01 44.21 -09 56 01.1 20.4   608 – Haleakala-AMOS MPS 29506
2001 04 18.50658 14 01 43.55 -09 55 57.6 20.2   608 – Haleakala-AMOS MPS 29506
2001 04 18.51728 14 01 42.87 -09 55 54.5 19.9   608 – Haleakala-AMOS MPS 29506
2001 04 27.27612 13 52 59.35 -09 15 31.4 18.8   704 – Lincoln Laboratory ETS, New Mexico MPS 29996
2001 04 27.28922 13 52 58.46 -09 15 28.3 18.4   704 – Lincoln Laboratory ETS, New Mexico MPS 29996
2001 04 27.30372 13 52 57.65 -09 15 23.7 18.6   704 – Lincoln Laboratory ETS, New Mexico MPS 29996
2001 04 27.39871 13 52 52.00 -09 14 56.3 19.3   608 – Haleakala-AMOS MPS 29996
2001 04 27.40957 13 52 51.29 -09 14 53.3 19.4   608 – Haleakala-AMOS MPS 29996
2001 04 27.41998 13 52 50.65 -09 14 50.2 19.5   608 – Haleakala-AMOS MPS 29996
2002 09 07.34398 03 28 58.89 +17 00 09.0 19.8   704 – Lincoln Laboratory ETS, New Mexico MPS 62364
2002 09 07.35805 03 28 59.27 +17 00 11.0 20.0   704 – Lincoln Laboratory ETS, New Mexico MPS 62364
2002 09 07.37219 03 28 59.64 +17 00 12.9 20.2   704 – Lincoln Laboratory ETS, New Mexico MPS 62364
2002 09 07.38627 03 29 00.05 +17 00 15.3 20.3   704 – Lincoln Laboratory ETS, New Mexico MPS 62364
2002 10 02.41397 03 31 36.62 +17 13 35.8 19.2   704 – Lincoln Laboratory ETS, New Mexico MPS 65064
2002 10 02.42961 03 31 36.27 +17 13 35.4 19.5   704 – Lincoln Laboratory ETS, New Mexico MPS 65064
2002 10 02.44524 03 31 35.94 +17 13 34.7 19.4   704 – Lincoln Laboratory ETS, New Mexico MPS 65064
2002 10 02.46081 03 31 35.60 +17 13 33.3 19.5   704 – Lincoln Laboratory ETS, New Mexico MPS 65064
2002 10 03.33317 03 31 18.42 +17 12 50.0 19.6   704 – Lincoln Laboratory ETS, New Mexico MPS 65064
2002 10 03.36519 03 31 17.64 +17 12 47.9 20.0   704 – Lincoln Laboratory ETS, New Mexico MPS 65064
2002 10 03.38105 03 31 17.26 +17 12 47.1 20.2   704 – Lincoln Laboratory ETS, New Mexico MPS 65064
2002 10 03.39683 03 31 16.87 +17 12 45.8 20.2   704 – Lincoln Laboratory ETS, New Mexico MPS 65064
2002 11 04.18408 03 06 01.30 +15 57 55.1 18.8   644 – Palomar Mountain/NEAT MPS 67281
2002 11 04.24688 03 05 57.15 +15 57 42.8 18.8   644 – Palomar Mountain/NEAT MPS 67281
2002 11 04.32138 03 05 52.17 +15 57 28.1 19.1   644 – Palomar Mountain/NEAT MPS 67281
2002 11 06.24248 03 03 47.72 +15 50 54.5 19.0   704 – Lincoln Laboratory ETS, New Mexico MPS 67281
2002 11 06.25913 03 03 46.67 +15 50 51.4 19.1   704 – Lincoln Laboratory ETS, New Mexico MPS 67281
2002 11 06.27579 03 03 45.49 +15 50 47.9 19.4   704 – Lincoln Laboratory ETS, New Mexico MPS 67281
